Location: Kitt Peak
(31.9639°N, 111.5992°W)
Time: 05:47:45
(UTC-07:00)

First-Move - Visible Passes

Search period start: 17 September 2024 00:00
Search period end: 27 September 2024 00:00
Orbit: 524 x 579 km, 97.7° (Epoch: 16 September)

Date Brightness Start Highest point End Pass type
(mag) Time Alt. Az. Time Alt. Az. Time Alt. Az.
17 Sep ? 03:21:01 10° NE 03:21:12 11° NE 03:21:12 11° NE visible
18 Sep ? 04:52:57 10° NW 04:52:59 10° NW 04:52:59 10° NW visible
19 Sep ? 04:48:51 10° NNW 04:48:58 10° NNW 04:48:58 10° NNW visible
20 Sep ? 04:44:45 10° NNW 04:44:54 11° NNW 04:44:54 11° NNW visible
21 Sep ? 04:40:36 10° NNW 04:40:47 11° NNW 04:40:47 11° NNW visible
22 Sep ? 04:36:27 10° NNW 04:36:37 11° NNW 04:36:37 11° NNW visible
23 Sep ? 04:32:14 10° NNW 04:32:23 11° NNW 04:32:23 11° NNW visible
24 Sep ? 04:28:00 10° NNW 04:28:05 10° NNW 04:28:05 10° NNW visible
25 Sep ? 04:23:43 10° N 04:23:44 10° N 04:23:44 10° N visible
